Regional Weather Roundup
Issued by NWS

Home | Current Version | Previous Version | Text Only | Print | Product List | Glossary On
Versions: 1 2 3 4 5 6 7 8 9 10 11 12 13 14 15 16 17 18 19 20 21 22 23 24 25 26 27 28 29 30 31 32 33 34 35 36 37 38 39 40 41 42 43 44 45 46 47 48 49 50
000
ASUS43 KTOP 290459
RWRKS

WEATHER ROUNDUP FOR KANSAS
NATIONAL WEATHER SERVICE GOODLAND KS
1200 AM CDT MON AUG 29 2016

NOTE:  "FAIR" INDICATES FEW OR NO CLOUDS BELOW 12,000 FEET WITH NO
SIGNIFICANT WEATHER AND/OR OBSTRUCTIONS TO VISIBILITY.

KSZ001>006-013>018-027>032-041>047-290600-
NORTHWEST KANSAS

CITY           SKY/WX    TMP DP  RH WIND       PRES   REMARKS
GOODLAND       PTCLDY    68  63  84 S10       30.18R
HAYS           PTCLDY    68  57  68 SE5       30.15R
HILL CITY      CLOUDY    70  64  81 S6        30.14S
RUSSELL        MOCLDY    69  67  93 SE3       30.14R
$$

KSZ061>065-074>080-084>089-290600-
SOUTHWEST KANSAS

CITY           SKY/WX    TMP DP  RH WIND       PRES   REMARKS
DODGE CITY     CLOUDY    67  64  90 SW6       30.15S
ELKHART          N/A     64  59  84 S7          N/A
GARDEN CITY    CLOUDY    66  62  87 S7        30.15F
GREAT BEND     PTCLDY    70  61  73 CALM      30.14S
LIBERAL        CLOUDY    68  61  77 SE8       30.17R
$$

KSZ066>073-081>083-090>101-290600-
SOUTHEAST KANSAS

CITY           SKY/WX    TMP DP  RH WIND       PRES   REMARKS
CHANUTE        CLEAR     75  70  84 E3        30.12S
COFFEYVILLE    CLEAR     73  67  81 SE6       30.11R
HUTCHINSON     CLOUDY    69  67  93 MISG      30.14R
MEDICINE LODGE   N/A     70  66  87 S5        30.13R
NEWTON         PTCLDY    73  69  87 E7        30.13R
PARSONS        CLEAR     72  70  93 CALM      30.12S
WICHITA INTL   CLOUDY    77  70  79 SE8       30.11R
WICHITA JABRA  CLOUDY    74  71  91 E6        30.11R
WINFIELD       PTCLDY    77  71  82 E6        30.11S
$$

KSZ007>012-019>026-033>040-048>060-102>105-290600-
NORTHEAST KANSAS

CITY           SKY/WX    TMP DP  RH WIND       PRES   REMARKS
CONCORDIA      CLOUDY    71  64  78 E5        30.15S
EMPORIA        MOCLDY    73  71  93 E5        30.13R
LAWRENCE       PTCLDY    74  71  91 CALM      30.13F
MANHATTAN      MOCLDY    73  69  87 NE5       30.13S
OLATHE IND     PTCLDY    74  69  85 E6        30.15S
OLATHE EXE     PTCLDY    74  67  78 E6        30.14F
SALINA         CLOUDY    77  70  79 E5        30.13R
TOPEKA BILLARD MOCLDY    75  69  81 E3        30.13F
TOPEKA FORBES  CLOUDY    76  70  82 E6        30.14S
$$




USA.gov is the U.S. government's official web portal to all federal, state and local government web resources and services.